Temp
-8 -7 -7 -7 -7 -7 -7 -7 -8 -8 -8 -7 -7 -7 -7 -8 -8 -8 -8 -8 -8 -8 -9 -8 -9 -9 -9 -9 -10 -9 -9 -9 -8 -8 -8 -7 -7 -7 -7 -7 -7 -8 -7 -7 -7 -7 -8 -8 -8
-8 -8 -8 -8 -8 -8 -8 -8 -8 -8 -8 -8 -8 -8 -8 -7 -7 -8 -8 -8 -8 -9 -9 -9 -9 -9 -9 -9 -9 -10 -9 -9 -9 -8 -8 -8 -7 -7 -7 -7 -8 -8 -7 -7 -7 -8 -8 -8 -9
-8 -8 -8 -8 -8 -8 -8 -8 -8 -8 -8 -8 -8 -8 -8 -8 -8 -8 -9 -9 -9 -9 -9 -10 -9 -9 -10 -9 -10 -10 -9 -9 -9 -9 -9 -8 -8 -8 -7 -7 -8 -8 -8 -8 -8 -8 -8 -8 -9
-8 -8 -8 -8 -8 -8 -8 -8 -9 -8 -9 -8 -8 -8 -8 -8 -8 -8 -9 -9 -9 -9 -10 -10 -10 -10 -10 -10 -10 -10 -10 -9 -9 -9 -9 -9 -8 -8 -8 -8 -8 -8 -8 -8 -8 -8 -8 -8 -9
-8 -8 -8 -8 -8 -8 -9 -9 -9 -9 -10 -10 -10 -9 -8 -9 -9 -9 -9 -10 -10 -9 -10 -10 -10 -10 -10 -10 -11 -10 -10 -10 -10 -9 -9 -9 -9 -8 -8 -8 -8 -8 -8 -8 -8 -8 -8 -8 -9
-8 -9 -8 -8 -9 -8 -9 -9 -10 -10 -10 -10 -11 -11 -10 -10 -9 -9 -9 -9 -10 -10 -10 -10 -10 -10 -10 -10 -11 -10 -10 -10 -10 -9 -10 -9 -9 -9 -8 -8 -9 -8 -8 -8 -8 -8 -8 -8 -9
-9 -9 -9 -9 -9 -9 -10 -11 -11 -12 -12 -12 -12 -12 -11 -12 -11 -10 -11 -11 -10 -10 -10 -11 -11 -10 -10 -10 -10 -11 -10 -10 -10 -10 -10 -10 -9 -9 -9 -9 -9 -9 -8 -8 -8 -8 -8 -8 -9
-9 -9 -9 -9 -11 -11 -12 -12 -13 -13 -13 -13 -13 -13 -13 -12 -12 -11 -12 -12 -12 -11 -10 -11 -11 -11 -11 -11 -11 -10 -11 -11 -10 -10 -10 -10 -9 -9 -9 -9 -9 -9 -9 -9 -8 -8 -8 -8 -9
-9 -9 -9 -10 -11 -12 -13 -13 -14 -15 -15 -14 -14 -14 -14 -14 -13 -13 -13 -13 -12 -12 -11 -11 -11 -11 -11 -11 -11 -11 -10 -11 -10 -10 -10 -10 -10 -9 -9 -9 -9 -9 -9 -9 -9 -8 -8 -8 -8
-9 -10 -10 -11 -12 -13 -14 -15 -16 -16 -16 -16 -15 -15 -15 -15 -15 -14 -14 -14 -14 -13 -13 -11 -12 -12 -12 -11 -11 -11 -11 -10 -10 -10 -10 -10 -10 -10 -9 -9 -9 -9 -9 -9 -9 -8 -8 -8 -8
-10 -10 -11 -12 -14 -15 -15 -17 -18 -19 -19 -18 -18 -17 -16 -16 -15 -15 -14 -14 -15 -14 -14 -13 -12 -12 -12 -12 -11 -11 -11 -10 -11 -10 -10 -10 -10 -10 -10 -9 -9 -9 -9 -9 -9 -9 -9 -9 -9
-10 -10 -12 -14 -15 -16 -18 -20 -21 -22 -21 -21 -21 -20 -19 -18 -18 -17 -16 -15 -15 -15 -14 -13 -12 -12 -13 -12 -12 -11 -10 -11 -10 -11 -10 -10 -10 -10 -10 -9 -9 -9 -9 -9 -9 -9 -9 -9 -9
-11 -12 -14 -15 -16 -19 -21 -22 -23 -24 -23 -23 -23 -23 -23 -22 -20 -19 -18 -17 -15 -15 -15 -15 -13 -13 -13 -13 -12 -11 -10 -12 -11 -11 -11 -10 -10 -10 -10 -10 -10 -10 -9 -9 -9 -9 -9 -9 -9
-12 -14 -15 -16 -18 -22 -22 -23 -23 -23 -23 -23 -23 -23 -24 -23 -23 -22 -20 -19 -17 -16 -15 -15 -15 -13 -13 -13 -12 -11 -12 -10 -11 -11 -11 -10 -10 -10 -10 -10 -10 -10 -9 -9 -9 -9 -9 -9 -9
-14 -15 -16 -18 -21 -23 -23 -23 -24 -23 -23 -23 -23 -24 -24 -24 -24 -23 -22 -21 -19 -17 -16 -15 -15 -14 -13 -13 -12 -12 -11 -12 -10 -11 -11 -10 -10 -10 -10 -10 -10 -10 -10 -9 -9 -9 -9 -9 -9
-14 -16 -17 -20 -22 -23 -23 -23 -24 -23 -23 -24 -24 -24 -24 -24 -24 -24 -24 -23 -20 -18 -17 -16 -15 -15 -14 -13 -13 -12 -11 -11 -11 -11 -10 -10 -10 -11 -11 -10 -10 -10 -10 -9 -9 -9 -9 -9 -9
-15 -16 -18 -21 -22 -23 -23 -23 -23 -23 -23 -24 -24 -24 -24 -24 -24 -25 -25 -24 -22 -19 -18 -17 -16 -15 -13 -14 -13 -13 -12 -12 -11 -11 -11 -11 -11 -11 -11 -11 -10 -10 -10 -10 -10 -9 -9 -9 -9
-15 -17 -19 -22 -23 -23 -23 -24 -24 -24 -25 -25 -25 -25 -25 -25 -25 -25 -25 -25 -24 -21 -19 -17 -17 -15 -14 -14 -14 -13 -13 -12 -11 -12 -10 -11 -11 -11 -11 -11 -11 -10 -9 -10 -10 -9 -9 -9 -9
-17 -18 -20 -23 -23 -23 -23 -24 -24 -24 -26 -26 -26 -25 -26 -26 -25 -25 -25 -25 -25 -23 -19 -18 -17 -16 -15 -14 -13 -14 -13 -13 -12 -12 -12 -11 -11 -11 -11 -11 -11 -10 -10 -10 -10 -10 -10 -10 -10
-17 -19 -21 -23 -24 -23 -24 -24 -24 -24 -25 -25 -26 -26 -26 -26 -26 -26 -25 -26 -25 -24 -21 -19 -17 -17 -16 -14 -14 -13 -13 -11 -12 -11 -10 -11 -12 -11 -11 -11 -10 -11 -10 -10 -10 -10 -10 -10 -10
-18 -19 -22 -23 -24 -24 -24 -24 -24 -25 -25 -25 -25 -25 -26 -26 -26 -26 -26 -26 -26 -25 -23 -20 -18 -17 -16 -15 -14 -14 -14 -13 -12 -12 -12 -12 -11 -11 -11 -11 -10 -11 -10 -10 -10 -10 -10 -10 -10
-18 -19 -22 -23 -24 -24 -24 -24 -25 -25 -25 -26 -26 -26 -26 -25 -26 -26 -26 -26 -26 -25 -24 -22 -20 -17 -17 -16 -15 -15 -14 -14 -12 -13 -11 -11 -11 -11 -12 -12 -11 -11 -11 -10 -11 -10 -10 -10 -10
-18 -20 -22 -23 -24 -24 -24 -24 -24 -25 -25 -25 -25 -26 -26 -26 -26 -26 -26 -26 -26 -25 -24 -24 -22 -19 -17 -17 -15 -15 -15 -14 -13 -13 -12 -11 -12 -11 -12 -12 -11 -11 -11 -11 -11 -11 -10 -10 -10
-18 -20 -22 -23 -23 -24 -25 -25 -25 -25 -24 -25 -25 -25 -25 -25 -25 -25 -25 -26 -26 -25 -25 -24 -23 -20 -18 -17 -16 -15 -14 -13 -13 -13 -13 -11 -12 -12 -12 -12 -11 -11 -11 -11 -11 -11 -11 -11 -10
-18 -20 -21 -23 -24 -24 -25 -25 -25 -25 -24 -24 -24 -24 -24 -24 -25 -25 -25 -25 -26 -26 -25 -24 -23 -22 -20 -17 -16 -15 -15 -14 -14 -13 -12 -12 -12 -13 -13 -12 -11 -11 -11 -11 -11 -11 -11 -11 -11
-18 -20 -23 -24 -25 -24 -25 -25 -25 -25 -24 -24 -24 -24 -24 -24 -25 -25 -25 -25 -25 -25 -25 -24 -24 -22 -20 -18 -16 -15 -15 -15 -15 -15 -12 -12 -12 -13 -12 -12 -11 -12 -11 -11 -11 -11 -11 -11 -11
-19 -21 -23 -24 -25 -23 -25 -25 -24 -25 -24 -24 -24 -24 -24 -24 -24 -25 -25 -25 -25 -25 -25 -23 -23 -23 -20 -18 -17 -15 -15 -16 -14 -14 -13 -12 -12 -12 -13 -12 -11 -12 -12 -11 -11 -11 -11 -11 -11
-19 -21 -22 -25 -25 -24 -24 -25 -25 -25 -24 -24 -24 -25 -25 -25 -24 -25 -25 -26 -27 -26 -25 -24 -22 -23 -20 -18 -16 -15 -15 -15 -15 -15 -13 -12 -12 -12 -12 -12 -12 -12 -12 -12 -11 -11 -11 -11 -11
-19 -21 -22 -24 -26 -26 -24 -26 -25 -25 -25 -24 -25 -25 -25 -24 -24 -25 -25 -26 -26 -26 -25 -26 -22 -23 -21 -18 -17 -16 -15 -16 -15 -15 -13 -13 -12 -12 -12 -12 -12 -13 -12 -11 -11 -11 -11 -11 -11
-19 -20 -23 -24 -24 -26 -25 -25 -25 -25 -26 -25 -25 -25 -24 -25 -25 -25 -25 -26 -26 -26 -26 -26 -24 -22 -21 -19 -17 -15 -14 -16 -15 -15 -14 -14 -13 -12 -13 -12 -13 -13 -12 -12 -11 -11 -11 -11 -11
Height
5839 5837 5835 5833 5833 5830 5830 5831 5829 5828 5824 5822 5821 5821 5821 5821 5821 5822 5822 5824 5826 5828 5831 5834 5836 5838 5839 5840 5843 5846 5847 5848 5849 5850 5851 5852 5853 5855 5856 5857 5858 5858 5859 5860 5861 5861 5860 5859 5859
5832 5831 5829 5828 5827 5824 5824 5823 5822 5818 5818 5816 5815 5814 5814 5814 5813 5814 5815 5817 5819 5821 5825 5827 5829 5830 5833 5835 5837 5840 5842 5845 5846 5848 5849 5849 5851 5852 5853 5855 5857 5858 5859 5859 5861 5861 5861 5860 5859
5828 5826 5823 5819 5819 5818 5815 5814 5813 5811 5809 5808 5807 5805 5805 5807 5806 5806 5807 5808 5811 5814 5818 5820 5822 5823 5827 5830 5831 5834 5838 5841 5842 5844 5846 5847 5848 5850 5851 5852 5855 5857 5858 5859 5859 5861 5861 5861 5860
5823 5821 5817 5814 5810 5807 5802 5800 5800 5797 5796 5795 5794 5793 5794 5793 5795 5797 5799 5799 5801 5805 5809 5812 5814 5816 5819 5823 5825 5828 5832 5835 5838 5840 5841 5844 5845 5847 5849 5850 5853 5856 5858 5858 5859 5860 5861 5862 5861
5816 5812 5808 5804 5800 5794 5791 5787 5783 5781 5780 5781 5779 5775 5778 5779 5782 5785 5787 5791 5791 5794 5799 5803 5805 5808 5811 5814 5818 5821 5824 5828 5832 5835 5837 5840 5841 5844 5846 5848 5851 5854 5856 5858 5859 5860 5860 5862 5863
5808 5804 5799 5793 5787 5781 5775 5771 5767 5764 5760 5759 5760 5760 5760 5761 5765 5770 5773 5776 5780 5783 5787 5792 5795 5799 5802 5803 5808 5814 5818 5822 5826 5829 5833 5836 5838 5840 5842 5846 5848 5850 5854 5856 5858 5860 5860 5862 5864
5798 5791 5786 5779 5772 5762 5759 5753 5747 5743 5739 5735 5736 5737 5739 5741 5745 5751 5758 5761 5766 5771 5775 5781 5785 5790 5793 5799 5801 5805 5811 5815 5819 5824 5828 5832 5835 5837 5839 5843 5846 5848 5852 5855 5856 5859 5860 5861 5864
5786 5779 5772 5763 5755 5743 5737 5729 5722 5717 5716 5713 5711 5710 5712 5720 5726 5731 5738 5744 5751 5755 5763 5768 5773 5779 5784 5789 5794 5796 5799 5806 5812 5819 5823 5827 5830 5834 5837 5840 5843 5846 5849 5854 5854 5858 5860 5860 5863
5775 5765 5756 5744 5734 5721 5713 5705 5698 5694 5689 5686 5684 5683 5688 5697 5702 5709 5716 5724 5733 5740 5747 5754 5760 5766 5774 5779 5785 5792 5793 5796 5804 5811 5815 5819 5825 5829 5833 5837 5840 5845 5847 5851 5852 5856 5859 5859 5862
5762 5750 5735 5722 5710 5700 5688 5680 5673 5667 5661 5655 5656 5655 5665 5672 5681 5689 5697 5704 5713 5722 5730 5738 5747 5754 5761 5769 5776 5783 5787 5788 5796 5803 5809 5813 5819 5824 5829 5832 5836 5842 5845 5848 5851 5854 5858 5860 5861
5744 5731 5717 5703 5689 5676 5664 5652 5645 5640 5636 5628 5630 5630 5636 5644 5655 5664 5673 5684 5694 5703 5712 5720 5730 5741 5749 5757 5767 5775 5777 5780 5786 5794 5801 5807 5813 5818 5824 5827 5832 5838 5843 5846 5849 5852 5855 5859 5861
5727 5713 5697 5682 5667 5652 5640 5631 5627 5621 5615 5613 5610 5611 5612 5616 5627 5640 5649 5660 5672 5683 5692 5702 5712 5724 5736 5744 5754 5763 5758 5765 5777 5785 5793 5801 5807 5812 5818 5823 5829 5834 5838 5842 5846 5850 5854 5856 5859
5710 5695 5678 5662 5647 5632 5625 5618 5613 5608 5607 5603 5600 5599 5597 5597 5602 5613 5625 5636 5648 5662 5674 5682 5694 5707 5719 5730 5740 5751 5749 5759 5764 5773 5785 5793 5799 5806 5812 5819 5825 5827 5833 5837 5842 5848 5852 5855 5857
5694 5677 5662 5645 5630 5621 5617 5610 5604 5601 5599 5595 5592 5589 5587 5586 5587 5590 5601 5612 5625 5641 5653 5665 5675 5688 5702 5714 5725 5736 5746 5740 5752 5766 5775 5784 5792 5799 5806 5814 5817 5820 5827 5832 5837 5843 5848 5852 5856
5680 5662 5644 5630 5618 5614 5609 5604 5595 5590 5588 5584 5582 5579 5576 5575 5574 5574 5579 5591 5603 5618 5633 5646 5658 5670 5683 5697 5709 5722 5727 5738 5740 5752 5763 5774 5783 5792 5800 5805 5809 5815 5822 5827 5833 5838 5844 5849 5853
5666 5649 5632 5618 5609 5606 5601 5596 5585 5580 5576 5572 5569 5567 5565 5563 5562 5562 5563 5571 5583 5594 5611 5627 5641 5653 5667 5681 5694 5706 5713 5727 5726 5735 5755 5763 5773 5783 5793 5796 5803 5810 5817 5822 5828 5834 5840 5845 5850
5658 5641 5624 5612 5604 5599 5592 5585 5576 5569 5563 5558 5555 5553 5550 5549 5550 5550 5550 5554 5563 5574 5588 5606 5622 5635 5650 5663 5676 5692 5710 5716 5726 5729 5743 5755 5764 5775 5783 5789 5795 5803 5810 5816 5823 5829 5835 5840 5845
5648 5633 5617 5603 5596 5590 5583 5574 5567 5559 5550 5545 5541 5538 5535 5534 5536 5537 5538 5540 5546 5556 5571 5587 5602 5618 5632 5647 5662 5677 5688 5703 5708 5719 5727 5736 5751 5764 5772 5779 5787 5795 5803 5811 5818 5824 5830 5836 5840
5635 5618 5605 5596 5587 5582 5574 5568 5560 5550 5541 5535 5532 5529 5524 5521 5522 5525 5527 5528 5533 5541 5552 5567 5584 5599 5616 5631 5649 5662 5676 5691 5700 5713 5715 5733 5740 5751 5762 5770 5780 5789 5798 5806 5814 5820 5826 5832 5838
5626 5610 5595 5590 5581 5573 5568 5562 5554 5547 5538 5531 5525 5520 5516 5514 5513 5513 5515 5518 5521 5527 5536 5549 5565 5581 5597 5612 5631 5648 5662 5676 5689 5701 5705 5714 5732 5743 5754 5762 5774 5783 5790 5798 5808 5816 5823 5827 5832
5618 5601 5589 5582 5576 5567 5562 5556 5549 5542 5535 5528 5521 5516 5511 5508 5507 5505 5505 5507 5508 5513 5519 5530 5545 5562 5578 5595 5613 5626 5649 5665 5679 5687 5694 5701 5716 5731 5744 5754 5767 5777 5785 5794 5803 5812 5819 5824 5831
5613 5596 5583 5575 5570 5562 5556 5551 5544 5537 5530 5523 5517 5512 5507 5503 5498 5496 5495 5495 5495 5498 5504 5511 5525 5542 5557 5576 5596 5612 5630 5648 5666 5678 5689 5693 5704 5723 5732 5743 5758 5769 5779 5787 5797 5806 5813 5820 5824
5607 5589 5577 5569 5563 5557 5549 5543 5537 5533 5526 5519 5512 5505 5498 5493 5490 5488 5484 5483 5482 5484 5489 5494 5506 5521 5537 5558 5579 5598 5617 5635 5651 5666 5681 5687 5696 5713 5724 5735 5749 5759 5771 5780 5790 5799 5807 5813 5820
5600 5586 5571 5562 5556 5550 5543 5536 5531 5525 5518 5510 5503 5497 5492 5485 5479 5474 5471 5469 5467 5468 5472 5479 5487 5502 5519 5541 5562 5583 5603 5618 5640 5654 5667 5680 5692 5709 5715 5728 5744 5753 5763 5775 5783 5793 5800 5808 5814
5594 5580 5567 5557 5549 5543 5537 5530 5525 5518 5512 5503 5495 5489 5484 5477 5472 5464 5458 5454 5452 5451 5455 5464 5470 5482 5501 5523 5546 5566 5588 5608 5625 5642 5656 5670 5681 5697 5711 5721 5735 5743 5754 5769 5777 5785 5795 5803 5810
5588 5570 5556 5546 5543 5538 5532 5523 5519 5511 5503 5496 5487 5479 5472 5465 5458 5450 5443 5438 5433 5435 5437 5446 5457 5467 5484 5507 5531 5549 5573 5594 5614 5635 5644 5660 5673 5685 5703 5716 5729 5739 5748 5761 5771 5779 5788 5797 5803
5581 5566 5555 5545 5539 5531 5528 5520 5512 5502 5494 5484 5476 5469 5459 5450 5442 5433 5427 5422 5417 5416 5420 5427 5443 5453 5470 5493 5515 5534 5559 5585 5606 5622 5633 5645 5659 5676 5690 5709 5724 5732 5741 5753 5764 5773 5782 5791 5797
5578 5560 5547 5537 5529 5522 5520 5511 5503 5494 5486 5476 5466 5457 5446 5437 5427 5419 5412 5406 5400 5397 5402 5408 5425 5440 5455 5478 5498 5518 5545 5571 5589 5610 5624 5639 5657 5671 5686 5702 5716 5727 5737 5749 5758 5766 5773 5783 5792
5574 5557 5544 5534 5528 5519 5512 5508 5497 5489 5477 5466 5458 5445 5432 5422 5412 5404 5397 5391 5386 5382 5386 5394 5406 5425 5443 5465 5482 5503 5531 5558 5579 5602 5616 5632 5647 5663 5681 5695 5709 5718 5731 5743 5752 5760 5768 5778 5787
5575 5558 5542 5530 5522 5515 5507 5505 5489 5480 5471 5457 5446 5433 5419 5405 5395 5389 5382 5376 5373 5371 5372 5380 5387 5405 5427 5448 5467 5491 5518 5547 5571 5589 5607 5624 5640 5656 5674 5685 5703 5712 5725 5735 5748 5757 5764 5772 5782
Wind_Speed
17 17 19 21 26 26 25 24 24 25 28 29 31 34 36 35 36 38 36 33 34 32 30 29 29 30 30 27 23 21 19 16 15 15 17 17 15 13 12 11 10 8 6 3 3 4 5 10 12
24 25 27 28 31 32 31 29 29 33 33 34 35 37 39 39 40 40 39 37 36 34 31 32 31 32 32 32 29 26 22 20 17 16 18 18 17 16 15 14 12 10 7 5 4 4 6 10 14
27 29 33 37 37 37 38 37 36 38 38 40 42 43 44 44 43 44 43 42 40 37 35 35 35 34 34 34 33 31 28 24 21 19 19 20 19 18 18 17 14 13 9 6 6 5 6 11 15
32 34 37 40 43 44 48 49 47 48 49 49 48 49 49 50 50 48 47 47 44 42 38 37 39 37 35 36 37 35 33 30 26 22 21 22 21 20 20 19 17 16 11 8 7 8 9 12 16
36 39 44 50 49 51 52 54 57 57 57 56 56 58 55 56 56 54 53 50 50 47 43 40 42 41 36 38 39 39 37 34 30 27 24 24 24 22 22 21 20 18 15 10 9 9 12 13 15
39 44 50 54 57 59 61 61 61 62 64 63 63 63 63 62 61 61 59 56 55 53 49 46 46 45 41 41 40 41 41 38 35 31 27 26 26 24 25 24 23 19 17 14 12 11 14 16 16
50 52 55 59 63 66 65 64 65 65 67 69 68 69 70 68 67 66 65 61 59 58 56 51 50 48 47 44 41 41 42 43 40 36 32 27 28 26 26 26 25 22 19 17 14 13 16 19 19
54 59 61 64 64 68 67 68 69 67 69 72 73 76 75 73 72 71 69 67 62 63 62 59 54 51 50 47 46 42 45 45 43 39 35 31 29 28 27 27 27 24 21 20 18 16 18 23 21
58 62 67 71 72 74 72 71 66 66 67 72 77 79 79 76 75 74 74 70 69 64 66 65 61 56 53 51 48 44 44 46 45 44 42 37 31 31 29 30 28 26 24 23 21 20 21 24 24
62 68 72 75 78 74 71 68 66 63 65 70 74 80 79 78 75 75 75 72 72 70 67 69 67 61 57 55 50 47 47 48 46 47 45 41 35 33 32 32 30 29 26 25 24 22 22 23 24
68 74 77 80 76 73 72 63 54 53 62 72 77 79 79 78 77 77 77 77 74 74 74 71 71 67 62 58 55 51 47 49 48 49 48 44 40 34 35 34 33 31 28 27 26 25 24 23 25
73 79 81 80 77 74 59 44 41 41 47 50 56 62 73 76 75 75 78 79 81 78 78 78 75 71 68 64 60 54 63 55 50 49 49 48 44 39 36 34 35 32 32 30 30 28 27 25 25
78 80 81 80 78 56 38 34 27 27 29 31 33 38 48 54 65 74 74 80 83 83 82 82 80 76 72 69 66 61 64 52 55 52 51 51 49 43 37 36 35 35 37 34 31 31 29 28 26
80 81 79 79 64 40 33 33 33 30 27 26 28 30 33 39 48 52 65 77 84 87 85 86 84 83 78 74 71 65 63 54 57 58 54 53 52 47 40 37 39 41 40 38 34 33 33 30 28
80 79 77 69 47 35 34 36 37 38 36 38 37 31 30 30 35 47 53 62 83 88 89 89 89 86 84 80 75 71 69 56 64 59 58 56 55 49 43 42 43 43 41 41 39 35 34 33 30
81 78 71 52 40 35 37 38 42 42 41 43 44 44 43 42 38 39 49 52 72 89 92 91 92 90 89 84 78 75 73 72 54 68 59 60 57 53 47 47 45 45 41 41 40 37 36 35 33
80 74 62 43 35 36 38 41 44 41 42 43 45 46 49 50 48 42 43 52 57 84 94 95 95 95 92 82 84 81 88 75 70 59 63 60 61 55 52 50 49 47 45 43 42 40 39 36 33
80 71 54 37 35 37 40 41 43 44 44 41 39 39 41 46 49 49 42 49 51 74 93 98 98 98 97 95 84 80 75 70 78 58 74 67 67 59 58 54 53 50 48 45 43 42 41 38 36
78 68 51 33 35 37 38 32 27 29 31 29 29 33 32 31 38 44 46 44 52 58 87 100 101 101 100 98 91 78 83 83 69 69 67 68 69 64 64 58 55 52 50 47 43 41 39 38 35
78 64 47 29 33 36 30 17 20 26 24 23 23 25 22 21 25 32 42 42 49 50 79 97 104 104 102 100 94 86 86 82 79 70 69 71 69 67 66 61 56 54 53 51 45 41 39 37 37
75 63 42 30 28 33 26 20 22 26 26 20 19 20 18 17 19 25 32 38 42 56 62 92 105 107 107 105 105 79 92 73 71 83 70 70 72 73 70 64 58 55 54 51 46 41 38 37 32
73 63 42 29 28 32 28 21 23 25 29 31 28 24 23 18 20 24 29 34 44 51 58 81 100 110 112 110 107 94 94 82 74 72 76 78 77 75 74 66 60 57 56 54 49 44 40 37 37
76 62 45 28 28 28 32 27 26 26 29 29 31 32 32 31 31 25 23 40 40 52 66 64 90 109 114 111 107 102 95 84 75 81 86 70 77 79 74 68 64 60 57 57 51 47 44 41 39
78 66 49 30 27 26 29 28 31 32 34 32 30 30 29 30 28 27 28 29 42 56 65 72 79 102 113 113 109 106 97 83 89 86 78 69 78 83 75 69 64 61 58 57 53 49 47 43 41
81 69 56 36 25 28 27 28 32 33 29 31 32 30 31 32 28 28 28 31 40 47 68 77 77 90 109 114 110 110 99 101 85 69 79 79 72 78 76 71 66 64 59 57 56 53 49 47 43
82 71 56 43 31 29 27 35 34 33 31 33 34 34 37 40 40 40 37 37 35 45 54 77 81 86 105 115 112 113 104 98 100 84 82 91 77 79 74 71 67 63 60 58 56 55 52 49 46
83 71 62 44 32 27 30 35 34 35 38 40 38 35 41 46 50 31 31 31 34 38 47 67 83 86 103 114 117 116 104 98 85 62 91 93 70 78 81 72 70 65 61 59 55 55 53 51 49
79 75 63 46 34 30 32 35 36 39 41 42 40 43 49 50 51 30 29 23 32 36 43 54 77 87 102 114 119 118 108 102 94 76 70 79 85 83 78 74 70 64 60 58 55 54 54 52 50
81 75 65 49 35 34 37 33 38 39 45 48 46 52 57 56 47 28 30 26 28 28 37 45 68 84 98 115 121 120 118 103 96 76 75 64 78 85 84 75 72 65 62 58 56 53 52 49 47
80 76 66 54 40 31 37 33 44 44 47 51 54 59 62 63 43 29 30 28 29 25 43 48 62 85 98 112 122 123 120 115 100 64 71 60 63 86 81 74 71 65 62 59 56 53 49 47 44
Wind_Direction
309 304 299 295 292 295 299 298 286 276 260 254 256 257 259 255 250 250 252 249 247 244 238 239 238 236 238 234 231 236 232 229 221 223 218 217 217 212 204 197 188 176 158 146 94 98 130 139 137
317 310 303 298 295 302 299 290 279 271 269 264 261 259 257 254 255 251 250 248 246 242 237 234 232 233 233 234 231 228 229 230 225 223 220 213 213 211 203 196 187 186 166 150 136 123 141 145 139
320 314 311 309 309 303 294 291 280 273 270 265 263 259 258 258 255 253 248 247 246 243 237 233 232 231 230 232 230 226 227 229 225 220 223 214 208 209 201 194 187 189 174 154 146 144 149 152 143
318 313 310 311 310 300 296 292 282 277 274 266 259 256 258 256 252 251 249 247 243 241 235 233 232 233 227 231 229 226 223 223 224 223 219 215 209 204 203 193 189 188 181 161 158 154 159 159 149
316 314 314 314 308 298 294 289 284 279 274 268 260 254 251 250 249 246 246 243 245 239 237 230 233 229 229 227 228 225 221 218 218 220 222 217 209 203 202 196 190 188 182 174 164 164 161 159 154
314 314 314 314 309 306 297 291 282 277 274 270 264 259 253 247 246 245 240 239 239 241 235 231 231 230 229 223 223 227 222 217 216 216 221 220 212 202 199 197 193 184 184 180 166 171 164 161 158
321 317 317 313 306 300 296 289 283 277 271 268 263 258 254 249 244 242 240 235 233 235 238 233 230 231 227 231 225 224 224 219 215 215 216 219 216 207 198 196 194 185 183 182 169 172 166 160 161
323 318 312 308 303 298 298 292 287 280 271 266 261 257 253 248 243 240 238 236 231 228 232 234 230 228 230 225 229 226 219 220 216 215 216 217 217 211 203 196 194 189 183 184 171 173 172 162 164
319 315 311 309 308 307 304 297 289 281 274 267 262 258 254 250 245 239 236 232 230 227 225 230 229 227 227 228 226 229 230 217 215 214 214 215 213 212 206 198 195 192 185 185 175 174 175 166 166
318 316 314 314 312 310 304 297 291 282 273 264 259 258 255 251 246 243 238 232 227 225 223 223 228 227 224 225 224 225 227 224 214 215 215 213 212 212 208 199 196 195 187 186 182 175 176 173 168
321 318 317 316 317 313 308 301 287 274 263 258 256 253 251 250 245 240 237 235 228 222 221 220 223 225 223 222 222 221 231 229 216 215 214 214 212 211 211 202 197 197 190 190 185 181 178 177 173
323 320 320 322 323 316 310 296 287 278 270 264 264 263 258 252 244 239 233 231 230 222 219 218 219 222 222 220 220 218 230 218 226 215 214 214 213 210 211 208 200 194 196 192 189 187 183 181 179
324 325 328 329 323 316 307 303 288 278 281 281 278 272 264 261 255 241 231 228 225 224 218 217 216 218 219 218 220 215 213 229 221 216 212 213 213 210 209 208 202 197 200 194 193 193 189 186 184
330 331 333 329 322 311 310 306 296 286 283 278 281 278 270 263 259 250 239 224 223 222 218 216 215 216 217 216 217 216 219 213 230 220 210 210 212 210 208 204 206 203 198 197 196 195 196 193 190
336 338 335 329 317 310 309 305 296 289 281 277 272 270 271 270 263 253 243 229 220 219 218 216 215 214 215 215 213 214 223 221 208 216 209 208 211 208 207 205 207 207 200 198 199 196 200 199 197
340 340 333 325 311 307 304 303 297 292 284 277 273 270 265 265 264 258 246 236 220 216 216 216 215 213 213 214 213 211 209 217 220 204 211 204 208 206 206 207 205 208 203 202 200 200 200 202 201
343 341 333 321 307 307 308 308 306 298 290 286 283 279 268 264 262 261 250 240 225 216 214 214 214 214 212 207 209 209 214 212 217 203 207 205 206 204 204 207 203 205 204 202 202 202 203 200 201
344 342 334 322 316 319 317 317 316 312 306 301 295 292 283 269 261 259 257 241 234 214 213 212 212 213 212 212 211 214 211 214 219 212 198 201 203 201 204 205 202 203 204 204 203 203 203 203 202
346 343 336 325 321 325 325 332 7 345 323 309 301 299 295 278 266 259 256 248 236 223 211 212 211 212 214 211 209 204 209 209 211 211 206 204 201 200 204 204 203 201 201 204 205 204 206 205 206
348 345 334 330 324 324 332 336 349 352 2 351 329 301 308 297 282 271 257 252 237 230 212 211 211 212 212 211 206 209 212 211 210 204 200 197 204 201 204 204 203 200 202 201 204 204 206 205 204
350 346 333 325 323 320 321 314 325 331 337 340 338 344 307 282 273 276 264 255 242 228 221 211 210 210 212 212 207 205 207 204 212 213 211 200 200 200 203 203 202 200 202 201 204 203 204 203 203
353 349 336 324 324 320 320 306 313 325 323 320 315 313 315 314 291 273 252 262 248 230 222 216 211 209 211 211 212 206 204 205 208 213 208 195 197 201 201 201 200 199 202 201 200 200 202 201 200
354 351 341 324 323 325 313 307 307 314 325 317 312 309 308 302 300 285 273 243 246 235 222 221 214 210 210 210 210 209 208 207 207 207 203 195 197 199 199 200 198 198 201 201 200 199 200 202 201
355 354 346 326 320 332 329 311 313 328 333 326 317 309 309 307 296 290 279 256 243 238 225 220 217 212 210 208 209 207 201 203 206 213 205 204 202 202 197 199 198 197 200 204 200 199 200 202 204
356 355 348 340 325 333 339 325 325 333 327 327 323 326 326 323 305 289 288 278 246 239 232 220 217 214 210 207 207 207 206 202 199 214 212 205 210 196 198 198 197 198 197 203 202 200 202 205 205
356 355 349 343 332 329 344 336 335 336 335 333 331 323 319 318 320 311 285 267 268 238 233 225 218 215 210 207 205 208 206 205 207 215 212 212 196 192 201 198 199 198 197 202 202 202 203 207 209
356 354 352 345 339 330 348 335 339 344 343 340 333 326 322 322 325 310 298 276 275 258 233 226 219 214 210 206 203 206 204 204 195 199 203 206 210 196 199 199 200 199 196 201 202 204 205 209 213
356 355 353 349 346 339 350 339 344 346 346 341 336 327 324 325 327 307 300 319 279 259 232 224 218 214 208 205 203 205 201 202 196 208 204 202 204 203 198 198 199 199 199 201 203 203 206 210 214
357 355 355 351 341 333 343 352 342 344 343 342 336 330 330 329 328 311 309 314 314 265 221 221 212 213 209 204 203 203 201 199 198 195 195 198 201 198 203 198 199 197 200 201 204 204 207 210 214
359 357 355 350 346 338 337 2 341 346 340 336 335 335 334 331 327 315 321 308 313 308 220 209 209 208 207 206 204 203 200 200 200 194 200 195 198 195 192 195 199 197 200 201 204 206 206 209 212